Miscellaneous Local Product
Issued by NWS Hastings, NE

Home | Current Version | Previous Version | Graphics & Text | Print | Product List | Glossary On
Versions: 1 2 3 4 5 6 7 8 9 10 11 12 13 14 15 16 17 18 19 20 21 22 23 24 25 26 27 28 29 30 31 32 33 34 35 36 37 38 39 40 41 42 43 44 45 46 47 48 49 50
685
AXUS43 KGID 220102
MISGRI

GID CWA HOURLY WEATHER ROUNDUP
NATIONAL WEATHER SERVICE HASTINGS NE
700 PM CST SAT JAN 21 2017

NOTE: "FAIR" INDICATES FEW OR NO CLOUDS BELOW 12,000 FEET WITH NO
SIGNIFICANT WEATHER AND/OR OBSTRUCTIONS TO VISIBILITY.

...SOUTH CENTRAL NEBRASKA...

CITY           SKY/WX    TMP DP  RH WIND       PRES   REMARKS
GRAND ISLAND   CLEAR     37  34  89 CALM      29.51R
HASTINGS       CLEAR     38  35  89 CALM      29.50R
ORD            CLEAR     34  29  82 SW3       29.49R
YORK           CLEAR     41  37  87 CALM      29.51R
AURORA         CLEAR     42  39  88 CALM      29.51R
LEXINGTON      CLEAR     37  32  82 CALM      29.49R
HOLDREGE       CLEAR     37  34  87 CALM      29.49R
HEBRON         CLEAR     37  35  89 CALM      29.51R

...NEBRASKA PANHANDLE...

CITY           SKY/WX    TMP DP  RH WIND       PRES   REMARKS
CHADRON        CLOUDY    28  25  88 CALM      29.53R
ALLIANCE       CLOUDY    32  25  75 NE5       29.51R WCI  27
SCOTTSBLUFF    CLEAR     33  28  81 CALM      29.52R
SIDNEY         CLOUDY    28  23  81 CALM      29.51R

...WESTERN AND NORTH CENTRAL NEBRASKA...

CITY           SKY/WX    TMP DP  RH WIND       PRES   REMARKS
VALENTINE      CLEAR     27  24  89 W8        29.51R WCI  19
AINSWORTH      CLEAR     35  30  82 NW3       29.51R
ONEILL         CLEAR     37  30  78 NW6       29.51R WCI  32
BROKEN BOW     CLEAR     36  32  85 N5        29.49R WCI  32
IMPERIAL       CLOUDY    33  28  81 N9        29.51R WCI  25
NORTH PLATTE   CLEAR     33  27  78 CALM      29.50R
MCCOOK         CLOUDY    36  29  75 NW3       29.49R

...EASTERN NEBRASKA...

CITY           SKY/WX    TMP DP  RH WIND       PRES   REMARKS
NORFOLK        CLEAR     41  32  70 CALM      29.49R
SO SIOUX CITY  CLEAR     32  30  92 N9        29.51R WCI  24
TEKAMAH        CLEAR     38  35  89 W5        29.51R WCI  34
COLUMBUS       CLEAR     37  32  81 CALM      29.51R
ALBION         CLEAR     35  29  79 CALM      29.50R
OMAHA EPPLEY   PTCLDY    40  33  76 CALM      29.51R
OFFUTT AFB     CLEAR     35  35 100 CALM      29.51R
MILLARD        CLEAR     40  37  89 CALM      29.52R
LINCOLN        CLEAR     38  34  85 CALM      29.53R
NEBRASKA CITY  CLEAR     47  36  64 CALM      29.52R
BEATRICE       CLEAR     40  38  92 NE5       29.51R
FALLS CITY     CLOUDY    47  39  74 E3        29.51R

...NORTHERN KANSAS...

CITY           SKY/WX    TMP DP  RH WIND       PRES   REMARKS
GOODLAND       CLOUDY    33  28  81 N8        29.47R WCI  26
HILL CITY      CLEAR     42  36  79 NE8       29.47R
NORTON         CLEAR     36  28  75 NE5       29.48  WCI  32
PHILLIPSBURG   CLEAR     45  34  65 N5        29.49R
SMITH CENTER   CLEAR     37  36  93 NE6       29.49R WCI  33
HAYS           PTCLDY    42  36  79 NE10      29.45R
RUSSELL        PTCLDY    43  36  76 NE8       29.43R
CONCORDIA      CLOUDY    46  39  76 E3        29.49R
SALINA         MOCLDY    46  39  76 NE6       29.47R
TOPEKA         LGT RAIN  50  43  77 CALM      29.51R



USA.gov is the U.S. government's official web portal to all federal, state and local government web resources and services.